Location: Barrow Cemetery
(35.4640°N, 90.0870°W)
Time: 02:17:53
(UTC+00:00)

ACS3 Solar Sail - Visible Passes

Search period start: 21 June 2024 00:00
Search period end: 01 July 2024 00:00
Orbit: 992 x 1024 km, 97.4° (Epoch: 20 June)

Date Brightness Start Highest point End Pass type
(mag) Time Alt. Az. Time Alt. Az. Time Alt. Az.
21 Jun 5.2 03:07:26 28° SE 03:10:25 50° ENE 03:16:23 10° N visible
21 Jun 6.5 04:52:46 19° WSW 04:54:44 22° W 04:59:23 10° NW visible
22 Jun 6.7 01:58:38 10° E 02:01:27 13° ENE 02:04:17 10° NE visible
22 Jun 4.8 03:42:13 39° S 03:44:44 84° W 03:50:59 10° NNW visible
23 Jun 6.0 02:31:41 15° ESE 02:35:25 27° ENE 02:40:26 10° NNE visible
23 Jun 5.7 04:17:01 32° SW 04:19:13 42° W 04:25:05 10° NNW visible
24 Jun 5.1 03:06:29 28° SE 03:09:33 52° ENE 03:15:33 10° N visible
24 Jun 6.6 04:51:49 18° WSW 04:53:54 21° W 04:58:26 10° NW visible
25 Jun 6.7 01:57:36 10° E 02:00:35 14° ENE 02:03:34 10° NNE visible
25 Jun 4.8 03:41:16 38° S 03:43:52 81° WSW 03:50:07 10° NNW visible
26 Jun 6.0 02:30:44 15° ESE 02:34:32 28° ENE 02:39:38 10° NNE visible
26 Jun 5.7 04:16:04 30° SW 04:18:22 41° W 04:24:12 10° NNW visible
27 Jun 5.1 03:05:31 28° SE 03:08:41 54° ENE 03:14:41 10° N visible
27 Jun 6.6 04:50:52 17° WSW 04:53:04 20° W 04:57:29 10° NW visible
28 Jun 6.6 01:56:33 10° E 01:59:42 14° ENE 02:02:50 10° NNE visible
28 Jun 4.8 03:40:19 37° S 03:43:01 79° WSW 03:49:15 10° NNW visible
29 Jun 5.9 02:29:47 15° ESE 02:33:39 28° ENE 02:38:49 10° NNE visible
29 Jun 5.8 04:15:07 29° SW 04:17:31 39° W 04:23:18 10° NNW visible
30 Jun 5.0 03:04:35 28° SE 03:07:49 55° ENE 03:13:51 10° N visible
30 Jun 6.7 04:49:55 16° WSW 04:52:13 19° W 04:56:32 10° NW visible
